Weather in Bozoy

Russia / Irkutsk Oblast     52°55′20″N   104°51′06″E
temp.,
°C
wind,
m/s
gust,
m/s
humid.,
%
clouds,
%
prec.,
mm/h
press.,
hPa
HPBL,
m
6 august, fri
fri623:00+18nne1167100 0.0 100314
02:00+15sw118294 0.3 100311
05:00+14nne1189100 0.1 100210
08:00+18w017268 0.1 1001186
11:00+20w126031 0.0 1001453
14:00+26w2335100 0.0 9982499
17:00+26nnw333691 0.0 9982066
20:00+21nw2352100 0.0 99846
7 august, sat
sat723:00+17n375726 0.0 998164
02:00+14n226915 0.0 99925
05:00+15n246683 0.0 100096
08:00+17n356471 0.0 1001320
11:00+23nw454227 0.0 10011959
14:00+22nw4646100 0.0 10011261
17:00+22nw464599 0.0 10021699
20:00+18nnw376532 0.0 1005416
8 august, sun
sun823:00+13nw369136 0.0 1007125
02:00+13nw268949 0.4 1008211
05:00+10nw24968 0.0 100989
08:00+15nw4127227 0.0 1010750
11:00+21nnw6104469 0.0 10102122
14:00+21n474210 0.1 10101637
17:00+22nne45399 0.0 10091356
20:00+18sse2356100 0.0 101053
9 august, mon
mon923:00+13sse01806 0.0 101110
02:00+11w00842 0.0 101010
05:00+9nne118738 0.0 101110
08:00+15e016487 0.0 1011154
11:00+22s1241100 0.0 10101219
14:00+25sw342972 0.0 10082660
17:00+25w342664 0.0 10072740
20:00+19w244331 0.0 100968
10 august, tue
tue1023:00+16wnw114491 0.0 101017
02:00+12n115812 0.0 101110
05:00+10e11732 0.0 101210
08:00+15se11603 0.0 1012168
11:00+22s21420 0.0 1011783
14:00+25s22303 0.0 10102404
17:00+25s32284 0.0 10102408
20:00+19wsw11471 0.0 101011